contact:dominique.lefevre@mio.osupytheas.fr, maurice.libes@osupytheas.fr, didier.mallarino@osupytheas.fr
Project:EMSO http://www.emso-fr.org/EMSO-France
Depth: 2436.0 m
Title:EMSO Ligure Ouest : Data MII capteur MICROCAT
DateTime_Computer,Latitude,Longitude,Temperature,Conductivity,Pressure,DateTime_Instrument
DateTime_Computer,Latitude,Longitude,degC,S m-1,dbar,DateTime_Instrument
2023-09-25T00:01:03Z,42.805,6.029,13.3062,4.60142,2470.67,2023-9-25T02:03:26Z
2023-09-25T00:04:07Z,42.805,6.029,13.3067,4.60167,2470.707,2023-9-25T02:06:29Z
2023-09-25T00:07:10Z,42.805,6.029,13.3071,4.60174,2470.684,2023-9-25T02:09:32Z
2023-09-25T00:10:13Z,42.805,6.029,13.3056,4.60170,2470.67,2023-9-25T02:12:36Z
2023-09-25T00:13:16Z,42.805,6.029,13.3070,4.60165,2470.661,2023-9-25T02:15:39Z
2023-09-25T00:16:19Z,42.805,6.029,13.3050,4.60162,2470.693,2023-9-25T02:18:42Z
2023-09-25T00:19:22Z,42.805,6.029,13.3072,4.60166,2470.717,2023-9-25T02:21:45Z
2023-09-25T00:22:25Z,42.805,6.029,13.3053,4.60176,2470.707,2023-9-25T02:24:48Z
2023-09-25T00:25:28Z,42.805,6.029,13.3066,4.60174,2470.679,2023-9-25T02:27:51Z
2023-09-25T00:28:31Z,42.805,6.029,13.3057,4.60166,2470.693,2023-9-25T02:30:54Z
2023-09-25T00:31:34Z,42.805,6.029,13.3051,4.60152,2470.707,2023-9-25T02:33:57Z
2023-09-25T00:34:37Z,42.805,6.029,13.3058,4.60179,2470.717,2023-9-25T02:37:00Z
2023-09-25T00:37:40Z,42.805,6.029,13.3073,4.60165,2470.754,2023-9-25T02:40:03Z
2023-09-25T00:40:44Z,42.805,6.029,13.3077,4.60160,2470.717,2023-9-25T02:43:06Z
2023-09-25T00:43:47Z,42.805,6.029,13.3078,4.60166,2470.707,2023-9-25T02:46:09Z
2023-09-25T00:46:50Z,42.805,6.029,13.3083,4.60174,2470.693,2023-9-25T02:49:13Z
2023-09-25T00:49:53Z,42.805,6.029,13.3078,4.60161,2470.717,2023-9-25T02:52:16Z
2023-09-25T00:52:56Z,42.805,6.029,13.3054,4.60179,2470.693,2023-9-25T02:55:19Z
2023-09-25T00:55:59Z,42.805,6.029,13.3057,4.60194,2470.707,2023-9-25T02:58:22Z
2023-09-25T00:59:02Z,42.805,6.029,13.3069,4.60166,2470.73,2023-9-25T03:01:25Z
2023-09-25T01:02:05Z,42.805,6.029,13.3061,4.60185,2470.73,2023-9-25T03:04:28Z
2023-09-25T01:05:08Z,42.805,6.029,13.3060,4.60170,2470.693,2023-9-25T03:07:31Z
2023-09-25T01:08:11Z,42.805,6.029,13.3058,4.60174,2470.754,2023-9-25T03:10:34Z
2023-09-25T01:11:14Z,42.805,6.029,13.3054,4.60169,2470.717,2023-9-25T03:13:37Z
2023-09-25T01:14:17Z,42.805,6.029,13.3056,4.60179,2470.717,2023-9-25T03:16:40Z
2023-09-25T01:17:20Z,42.805,6.029,13.3065,4.60150,2470.717,2023-9-25T03:19:43Z
2023-09-25T01:20:24Z,42.805,6.029,13.3053,4.60173,2470.717,2023-9-25T03:22:46Z
2023-09-25T01:23:27Z,42.805,6.029,13.3067,4.60144,2470.717,2023-9-25T03:25:49Z
2023-09-25T01:26:30Z,42.805,6.029,13.3061,4.60139,2470.717,2023-9-25T03:28:53Z
2023-09-25T01:29:33Z,42.805,6.029,13.3064,4.60135,2470.717,2023-9-25T03:31:56Z
2023-09-25T01:32:36Z,42.805,6.029,13.3070,4.60134,2470.754,2023-9-25T03:34:59Z
2023-09-25T01:35:39Z,42.805,6.029,13.3082,4.60127,2470.73,2023-9-25T03:38:02Z
2023-09-25T01:38:42Z,42.805,6.029,13.3073,4.60122,2470.73,2023-9-25T03:41:05Z
2023-09-25T01:41:45Z,42.805,6.029,13.3039,4.60117,2470.707,2023-9-25T03:44:08Z
2023-09-25T01:44:48Z,42.805,6.029,13.3047,4.60110,2470.754,2023-9-25T03:47:11Z
2023-09-25T01:47:51Z,42.805,6.029,13.3043,4.60112,2470.693,2023-9-25T03:50:14Z
2023-09-25T01:50:54Z,42.805,6.029,13.3065,4.60117,2470.693,2023-9-25T03:53:17Z
2023-09-25T01:53:58Z,42.805,6.029,13.3059,4.60134,2470.754,2023-9-25T03:56:20Z
2023-09-25T01:57:01Z,42.805,6.029,13.3049,4.60134,2470.74,2023-9-25T03:59:23Z
2023-09-25T02:00:04Z,42.805,6.029,13.3063,4.60130,2470.73,2023-9-25T04:02:26Z
2023-09-25T02:03:07Z,42.805,6.029,13.3057,4.60151,2470.754,2023-9-25T04:05:30Z
2023-09-25T02:06:10Z,42.805,6.029,13.3064,4.60147,2470.74,2023-9-25T04:08:33Z
2023-09-25T02:09:13Z,42.805,6.029,13.3064,4.60127,2470.707,2023-9-25T04:11:36Z
2023-09-25T02:12:16Z,42.805,6.029,13.3069,4.60121,2470.717,2023-9-25T04:14:39Z
2023-09-25T02:15:19Z,42.805,6.029,13.3062,4.60127,2470.717,2023-9-25T04:17:42Z
2023-09-25T02:18:22Z,42.805,6.029,13.3062,4.60110,2470.74,2023-9-25T04:20:45Z
2023-09-25T02:21:25Z,42.805,6.029,13.3063,4.60137,2470.74,2023-9-25T04:23:48Z
2023-09-25T02:24:28Z,42.805,6.029,13.3053,4.60119,2470.717,2023-9-25T04:26:51Z
2023-09-25T02:27:31Z,42.805,6.029,13.3056,4.60162,2470.73,2023-9-25T04:29:54Z
2023-09-25T02:30:34Z,42.805,6.029,13.3062,4.60127,2470.73,2023-9-25T04:32:57Z
2023-09-25T02:33:38Z,42.805,6.029,13.3057,4.60172,2470.707,2023-9-25T04:36:00Z
2023-09-25T02:36:41Z,42.805,6.029,13.3062,4.60144,2470.717,2023-9-25T04:39:03Z
2023-09-25T02:39:44Z,42.805,6.029,13.3065,4.60144,2470.73,2023-9-25T04:42:07Z
2023-09-25T02:42:47Z,42.805,6.029,13.3059,4.60151,2470.717,2023-9-25T04:45:10Z
2023-09-25T02:45:50Z,42.805,6.029,13.3059,4.60134,2470.74,2023-9-25T04:48:13Z
2023-09-25T02:48:53Z,42.805,6.029,13.3055,4.60115,2470.717,2023-9-25T04:51:16Z
2023-09-25T02:51:56Z,42.805,6.029,13.3064,4.60122,2470.73,2023-9-25T04:54:19Z
2023-09-25T02:54:59Z,42.805,6.029,13.3063,4.60131,2470.693,2023-9-25T04:57:22Z
2023-09-25T02:58:02Z,42.805,6.029,13.3067,4.60125,2470.73,2023-9-25T05:00:25Z
2023-09-25T03:01:05Z,42.805,6.029,13.3056,4.60144,2470.74,2023-9-25T05:03:28Z
2023-09-25T03:04:08Z,42.805,6.029,13.3063,4.60141,2470.754,2023-9-25T05:06:31Z
2023-09-25T03:07:11Z,42.805,6.029,13.3058,4.60130,2470.74,2023-9-25T05:09:34Z
2023-09-25T03:10:15Z,42.805,6.029,13.3043,4.60111,2470.754,2023-9-25T05:12:37Z
2023-09-25T03:13:18Z,42.805,6.029,13.3059,4.60126,2470.74,2023-9-25T05:15:40Z
2023-09-25T03:16:21Z,42.805,6.029,13.3070,4.60135,2470.763,2023-9-25T05:18:43Z
2023-09-25T03:19:24Z,42.805,6.029,13.3055,4.60106,2470.74,2023-9-25T05:21:47Z
2023-09-25T03:22:27Z,42.805,6.029,13.3043,4.60119,2470.74,2023-9-25T05:24:50Z
2023-09-25T03:25:30Z,42.805,6.029,13.3060,4.60135,2470.74,2023-9-25T05:27:53Z
2023-09-25T03:28:33Z,42.805,6.029,13.3055,4.60132,2470.73,2023-9-25T05:30:56Z
2023-09-25T03:31:36Z,42.805,6.029,13.3061,4.60133,2470.74,2023-9-25T05:33:59Z
2023-09-25T03:34:39Z,42.805,6.029,13.3063,4.60134,2470.717,2023-9-25T05:37:02Z
2023-09-25T03:37:42Z,42.805,6.029,13.3052,4.60140,2470.74,2023-9-25T05:40:05Z
2023-09-25T03:40:45Z,42.805,6.029,13.3037,4.60107,2470.74,2023-9-25T05:43:08Z
2023-09-25T03:43:48Z,42.805,6.029,13.3067,4.60130,2470.717,2023-9-25T05:46:11Z
2023-09-25T03:46:52Z,42.805,6.029,13.3063,4.60122,2470.717,2023-9-25T05:49:14Z
2023-09-25T03:49:55Z,42.805,6.029,13.3084,4.60120,2470.763,2023-9-25T05:52:17Z
2023-09-25T03:52:58Z,42.805,6.029,13.3053,4.60122,2470.74,2023-9-25T05:55:20Z
2023-09-25T03:56:01Z,42.805,6.029,13.3064,4.60115,2470.777,2023-9-25T05:58:24Z
2023-09-25T03:59:04Z,42.805,6.029,13.3069,4.60120,2470.763,2023-9-25T06:01:27Z
2023-09-25T04:02:07Z,42.805,6.029,13.3052,4.60124,2470.74,2023-9-25T06:04:30Z
2023-09-25T04:05:10Z,42.805,6.029,13.3065,4.60142,2470.754,2023-9-25T06:07:33Z
2023-09-25T04:08:13Z,42.805,6.029,13.3067,4.60132,2470.73,2023-9-25T06:10:36Z
2023-09-25T04:11:16Z,42.805,6.029,13.3061,4.60133,2470.74,2023-9-25T06:13:39Z
2023-09-25T04:14:19Z,42.805,6.029,13.3044,4.60129,2470.73,2023-9-25T06:16:42Z
2023-09-25T04:17:22Z,42.805,6.029,13.3054,4.60131,2470.777,2023-9-25T06:19:45Z
2023-09-25T04:20:25Z,42.805,6.029,13.3059,4.60141,2470.717,2023-9-25T06:22:48Z
2023-09-25T04:23:28Z,42.805,6.029,13.3067,4.60150,2470.754,2023-9-25T06:25:51Z
2023-09-25T04:26:32Z,42.805,6.029,13.3070,4.60173,2470.777,2023-9-25T06:28:54Z
2023-09-25T04:29:35Z,42.805,6.029,13.3056,4.60152,2470.74,2023-9-25T06:31:57Z
2023-09-25T04:32:38Z,42.805,6.029,13.3067,4.60143,2470.74,2023-9-25T06:35:01Z
2023-09-25T04:35:41Z,42.805,6.029,13.3077,4.60178,2470.754,2023-9-25T06:38:04Z
2023-09-25T04:38:44Z,42.805,6.029,13.3049,4.60143,2470.74,2023-9-25T06:41:07Z
2023-09-25T04:41:47Z,42.805,6.029,13.3055,4.60183,2470.754,2023-9-25T06:44:10Z
2023-09-25T04:44:50Z,42.805,6.029,13.3051,4.60161,2470.754,2023-9-25T06:47:13Z
2023-09-25T04:47:53Z,42.805,6.029,13.3060,4.60173,2470.777,2023-9-25T06:50:16Z
2023-09-25T04:50:56Z,42.805,6.029,13.3046,4.60170,2470.717,2023-9-25T06:53:19Z
2023-09-25T04:53:59Z,42.805,6.029,13.3057,4.60162,2470.74,2023-9-25T06:56:22Z
2023-09-25T04:57:02Z,42.805,6.029,13.3054,4.60157,2470.717,2023-9-25T06:59:25Z
2023-09-25T05:00:05Z,42.805,6.029,13.3051,4.60157,2470.73,2023-9-25T07:02:28Z
2023-09-25T05:03:09Z,42.805,6.029,13.3048,4.60190,2470.74,2023-9-25T07:05:31Z
2023-09-25T05:06:12Z,42.805,6.029,13.3063,4.60155,2470.74,2023-9-25T07:08:34Z
2023-09-25T05:09:15Z,42.805,6.029,13.3050,4.60170,2470.73,2023-9-25T07:11:37Z
2023-09-25T05:12:18Z,42.805,6.029,13.3065,4.60161,2470.763,2023-9-25T07:14:41Z
2023-09-25T05:15:21Z,42.805,6.029,13.3054,4.60167,2470.74,2023-9-25T07:17:44Z
2023-09-25T05:18:24Z,42.805,6.029,13.3054,4.60154,2470.74,2023-9-25T07:20:47Z
2023-09-25T05:21:27Z,42.805,6.029,13.3049,4.60161,2470.717,2023-9-25T07:23:50Z
2023-09-25T05:24:30Z,42.805,6.029,13.3048,4.60173,2470.717,2023-9-25T07:26:53Z
2023-09-25T05:27:33Z,42.805,6.029,13.3057,4.60177,2470.717,2023-9-25T07:29:56Z
2023-09-25T05:30:36Z,42.805,6.029,13.3056,4.60168,2470.717,2023-9-25T07:32:59Z
2023-09-25T05:33:39Z,42.805,6.029,13.3049,4.60152,2470.74,2023-9-25T07:36:02Z
2023-09-25T05:36:42Z,42.805,6.029,13.3050,4.60152,2470.754,2023-9-25T07:39:05Z
2023-09-25T05:39:46Z,42.805,6.029,13.3047,4.60150,2470.754,2023-9-25T07:42:08Z
2023-09-25T05:42:49Z,42.805,6.029,13.3046,4.60175,2470.703,2023-9-25T07:45:11Z
2023-09-25T05:45:52Z,42.805,6.029,13.3050,4.60150,2470.754,2023-9-25T07:48:14Z
2023-09-25T05:48:55Z,42.805,6.029,13.3049,4.60159,2470.73,2023-9-25T07:51:18Z
2023-09-25T05:51:58Z,42.805,6.029,13.3056,4.60165,2470.693,2023-9-25T07:54:21Z
2023-09-25T05:55:01Z,42.805,6.029,13.3044,4.60156,2470.74,2023-9-25T07:57:24Z
2023-09-25T05:58:04Z,42.805,6.029,13.3049,4.60142,2470.73,2023-9-25T08:00:27Z
2023-09-25T06:01:07Z,42.805,6.029,13.3059,4.60147,2470.73,2023-9-25T08:03:30Z
2023-09-25T06:04:10Z,42.805,6.029,13.3044,4.60149,2470.763,2023-9-25T08:06:33Z
2023-09-25T06:07:13Z,42.805,6.029,13.3052,4.60166,2470.717,2023-9-25T08:09:36Z
2023-09-25T06:10:16Z,42.805,6.029,13.3067,4.60156,2470.74,2023-9-25T08:12:39Z
2023-09-25T06:13:19Z,42.805,6.029,13.3075,4.60170,2470.763,2023-9-25T08:15:42Z
2023-09-25T06:16:22Z,42.805,6.029,13.3048,4.60178,2470.707,2023-9-25T08:18:45Z
2023-09-25T06:19:26Z,42.805,6.029,13.3063,4.60178,2470.693,2023-9-25T08:21:48Z
2023-09-25T06:22:29Z,42.805,6.029,13.3051,4.60169,2470.693,2023-9-25T08:24:51Z
2023-09-25T06:25:32Z,42.805,6.029,13.3052,4.60170,2470.717,2023-9-25T08:27:55Z
2023-09-25T06:28:35Z,42.805,6.029,13.3057,4.60156,2470.717,2023-9-25T08:30:58Z
2023-09-25T06:31:38Z,42.805,6.029,13.3054,4.60175,2470.717,2023-9-25T08:34:01Z
2023-09-25T06:34:41Z,42.805,6.029,13.3057,4.60155,2470.73,2023-9-25T08:37:04Z
2023-09-25T06:37:44Z,42.805,6.029,13.3051,4.60172,2470.74,2023-9-25T08:40:07Z
2023-09-25T06:40:47Z,42.805,6.029,13.3061,4.60161,2470.73,2023-9-25T08:43:10Z
2023-09-25T06:43:50Z,42.805,6.029,13.3063,4.60135,2470.717,2023-9-25T08:46:13Z
2023-09-25T06:46:53Z,42.805,6.029,13.3062,4.60155,2470.74,2023-9-25T08:49:16Z
2023-09-25T06:49:56Z,42.805,6.029,13.3061,4.60194,2470.717,2023-9-25T08:52:19Z
2023-09-25T06:52:59Z,42.805,6.029,13.3059,4.60175,2470.693,2023-9-25T08:55:22Z
2023-09-25T06:56:02Z,42.805,6.029,13.3058,4.60175,2470.73,2023-9-25T08:58:25Z
2023-09-25T06:59:06Z,42.805,6.029,13.3078,4.60178,2470.73,2023-9-25T09:01:28Z
2023-09-25T07:02:09Z,42.805,6.029,13.3088,4.60193,2470.717,2023-9-25T09:04:31Z
2023-09-25T07:05:12Z,42.805,6.029,13.3067,4.60165,2470.707,2023-9-25T09:07:35Z
2023-09-25T07:08:15Z,42.805,6.029,13.3078,4.60192,2470.693,2023-9-25T09:10:38Z
2023-09-25T07:11:18Z,42.805,6.029,13.3072,4.60164,2470.707,2023-9-25T09:13:41Z
2023-09-25T07:14:21Z,42.805,6.029,13.3063,4.60198,2470.717,2023-9-25T09:16:44Z
2023-09-25T07:17:24Z,42.805,6.029,13.3073,4.60175,2470.693,2023-9-25T09:19:47Z
2023-09-25T07:20:27Z,42.805,6.029,13.3086,4.60167,2470.717,2023-9-25T09:22:50Z
2023-09-25T07:23:30Z,42.805,6.029,13.3051,4.60167,2470.684,2023-9-25T09:25:53Z
2023-09-25T07:26:33Z,42.805,6.029,13.3063,4.60163,2470.67,2023-9-25T09:28:56Z
2023-09-25T07:29:36Z,42.805,6.029,13.3054,4.60164,2470.717,2023-9-25T09:31:59Z
2023-09-25T07:32:39Z,42.805,6.029,13.3069,4.60180,2470.693,2023-9-25T09:35:02Z
2023-09-25T07:35:43Z,42.805,6.029,13.3082,4.60162,2470.717,2023-9-25T09:38:05Z
2023-09-25T07:38:46Z,42.805,6.029,13.3054,4.60194,2470.707,2023-9-25T09:41:08Z
2023-09-25T07:41:49Z,42.805,6.029,13.3074,4.60170,2470.684,2023-9-25T09:44:12Z
2023-09-25T07:44:52Z,42.805,6.029,13.3085,4.60203,2470.73,2023-9-25T09:47:15Z
2023-09-25T07:47:55Z,42.805,6.029,13.3096,4.60145,2470.67,2023-9-25T09:50:18Z
2023-09-25T07:50:58Z,42.805,6.029,13.3069,4.60165,2470.646,2023-9-25T09:53:21Z
2023-09-25T07:54:01Z,42.805,6.029,13.3080,4.60221,2470.707,2023-9-25T09:56:24Z
2023-09-25T07:57:04Z,42.805,6.029,13.3098,4.60161,2470.684,2023-9-25T09:59:27Z
2023-09-25T08:00:07Z,42.805,6.029,13.3068,4.60184,2470.684,2023-9-25T10:02:30Z
2023-09-25T08:03:10Z,42.805,6.029,13.3085,4.60175,2470.646,2023-9-25T10:05:33Z
2023-09-25T08:06:13Z,42.805,6.029,13.3087,4.60159,2470.684,2023-9-25T10:08:36Z
2023-09-25T08:09:16Z,42.805,6.029,13.3101,4.60171,2470.684,2023-9-25T10:11:39Z
2023-09-25T08:12:19Z,42.805,6.029,13.3052,4.60215,2470.684,2023-9-25T10:14:42Z
2023-09-25T08:15:23Z,42.805,6.029,13.3103,4.60225,2470.67,2023-9-25T10:17:45Z
2023-09-25T08:18:26Z,42.805,6.029,13.3074,4.60168,2470.646,2023-9-25T10:20:48Z
2023-09-25T08:21:29Z,42.805,6.029,13.3085,4.60159,2470.684,2023-9-25T10:23:52Z
2023-09-25T08:24:32Z,42.805,6.029,13.3103,4.60170,2470.67,2023-9-25T10:26:55Z
2023-09-25T08:27:35Z,42.805,6.029,13.3101,4.60160,2470.707,2023-9-25T10:29:58Z
2023-09-25T08:30:38Z,42.805,6.029,13.3102,4.60176,2470.624,2023-9-25T10:33:01Z
2023-09-25T08:33:41Z,42.805,6.029,13.3104,4.60156,2470.684,2023-9-25T10:36:04Z
2023-09-25T08:36:44Z,42.805,6.029,13.3091,4.60172,2470.67,2023-9-25T10:39:07Z
2023-09-25T08:39:47Z,42.805,6.029,13.3083,4.60199,2470.637,2023-9-25T10:42:10Z
2023-09-25T08:42:50Z,42.805,6.029,13.3069,4.60183,2470.661,2023-9-25T10:45:13Z
2023-09-25T08:45:53Z,42.805,6.029,13.3084,4.60200,2470.684,2023-9-25T10:48:16Z
2023-09-25T08:48:57Z,42.805,6.029,13.3085,4.60173,2470.684,2023-9-25T10:51:19Z
2023-09-25T08:52:00Z,42.805,6.029,13.3099,4.60189,2470.684,2023-9-25T10:54:22Z
2023-09-25T08:55:03Z,42.805,6.029,13.3093,4.60198,2470.684,2023-9-25T10:57:26Z
2023-09-25T08:58:06Z,42.805,6.029,13.3108,4.60194,2470.646,2023-9-25T11:00:29Z
2023-09-25T09:01:09Z,42.805,6.029,13.3113,4.60204,2470.67,2023-9-25T11:03:32Z
2023-09-25T09:04:12Z,42.805,6.029,13.3061,4.60201,2470.67,2023-9-25T11:06:35Z
2023-09-25T09:07:15Z,42.805,6.029,13.3089,4.60180,2470.693,2023-9-25T11:09:38Z
2023-09-25T09:10:18Z,42.805,6.029,13.3096,4.60208,2470.67,2023-9-25T11:12:41Z
2023-09-25T09:13:21Z,42.805,6.029,13.3097,4.60228,2470.661,2023-9-25T11:15:44Z
2023-09-25T09:16:24Z,42.805,6.029,13.3123,4.60205,2470.67,2023-9-25T11:18:47Z
2023-09-25T09:19:27Z,42.805,6.029,13.3114,4.60201,2470.707,2023-9-25T11:21:50Z
2023-09-25T09:22:30Z,42.805,6.029,13.3099,4.60210,2470.693,2023-9-25T11:24:53Z
2023-09-25T09:25:34Z,42.805,6.029,13.3108,4.60207,2470.646,2023-9-25T11:27:56Z
2023-09-25T09:28:37Z,42.805,6.029,13.3118,4.60210,2470.693,2023-9-25T11:30:59Z
2023-09-25T09:31:40Z,42.805,6.029,13.3095,4.60282,2470.661,2023-9-25T11:34:03Z
2023-09-25T09:34:43Z,42.805,6.029,13.3109,4.60191,2470.646,2023-9-25T11:37:06Z
2023-09-25T09:37:46Z,42.805,6.029,13.3142,4.60177,2470.684,2023-9-25T11:40:09Z
2023-09-25T09:40:49Z,42.805,6.029,13.3124,4.60180,2470.684,2023-9-25T11:43:12Z
2023-09-25T09:43:52Z,42.805,6.029,13.3109,4.60153,2470.684,2023-9-25T11:46:15Z
2023-09-25T09:46:55Z,42.805,6.029,13.3069,4.60152,2470.67,2023-9-25T11:49:18Z
2023-09-25T09:49:58Z,42.805,6.029,13.3070,4.60154,2470.693,2023-9-25T11:52:21Z
2023-09-25T09:53:01Z,42.805,6.029,13.3081,4.60141,2470.661,2023-9-25T11:55:24Z
2023-09-25T09:56:04Z,42.805,6.029,13.3090,4.60177,2470.67,2023-9-25T11:58:27Z
2023-09-25T09:59:08Z,42.805,6.029,13.3093,4.60192,2470.646,2023-9-25T12:01:30Z
2023-09-25T10:02:11Z,42.805,6.029,13.3106,4.60178,2470.67,2023-9-25T12:04:33Z
2023-09-25T10:05:14Z,42.805,6.029,13.3111,4.60172,2470.67,2023-9-25T12:07:37Z
2023-09-25T10:08:17Z,42.805,6.029,13.3096,4.60173,2470.693,2023-9-25T12:10:40Z
2023-09-25T10:11:20Z,42.805,6.029,13.3091,4.60176,2470.67,2023-9-25T12:13:43Z
2023-09-25T10:14:23Z,42.805,6.029,13.3108,4.60166,2470.67,2023-9-25T12:16:46Z
2023-09-25T10:17:26Z,42.805,6.029,13.3117,4.60165,2470.67,2023-9-25T12:19:49Z
2023-09-25T10:20:29Z,42.805,6.029,13.3104,4.60166,2470.646,2023-9-25T12:22:52Z
2023-09-25T10:23:32Z,42.805,6.029,13.3078,4.60159,2470.707,2023-9-25T12:25:55Z
2023-09-25T10:26:35Z,42.805,6.029,13.3074,4.60142,2470.646,2023-9-25T12:28:58Z
2023-09-25T10:29:38Z,42.805,6.029,13.3072,4.60155,2470.67,2023-9-25T12:32:01Z
2023-09-25T10:32:39Z,42.805,6.029,13.3076,4.60148,2470.707,2023-9-25T12:35:02Z
2023-09-25T10:35:43Z,42.805,6.029,13.3101,4.60135,2470.67,2023-9-25T12:38:05Z
2023-09-25T10:38:46Z,42.805,6.029,13.3113,4.60126,2470.67,2023-9-25T12:41:08Z
2023-09-25T10:41:49Z,42.805,6.029,13.3104,4.60125,2470.67,2023-9-25T12:44:12Z
2023-09-25T10:44:52Z,42.805,6.029,13.3089,4.60132,2470.67,2023-9-25T12:47:15Z
2023-09-25T10:47:55Z,42.805,6.029,13.3075,4.60152,2470.656,2023-9-25T12:50:18Z
2023-09-25T10:50:58Z,42.805,6.029,13.3061,4.60146,2470.67,2023-9-25T12:53:21Z
2023-09-25T10:54:01Z,42.805,6.029,13.3070,4.60153,2470.67,2023-9-25T12:56:24Z
2023-09-25T10:57:04Z,42.805,6.029,13.3058,4.60159,2470.684,2023-9-25T12:59:27Z
2023-09-25T11:00:07Z,42.805,6.029,13.3057,4.60140,2470.693,2023-9-25T13:02:30Z
2023-09-25T11:03:10Z,42.805,6.029,13.3067,4.60129,2470.707,2023-9-25T13:05:33Z
2023-09-25T11:06:13Z,42.805,6.029,13.3061,4.60150,2470.646,2023-9-25T13:08:36Z
2023-09-25T11:09:16Z,42.805,6.029,13.3061,4.60143,2470.67,2023-9-25T13:11:39Z
2023-09-25T11:12:20Z,42.805,6.029,13.3061,4.60158,2470.73,2023-9-25T13:14:42Z
2023-09-25T11:15:23Z,42.805,6.029,13.3109,4.60151,2470.693,2023-9-25T13:17:45Z
2023-09-25T11:18:26Z,42.805,6.029,13.3096,4.60147,2470.693,2023-9-25T13:20:49Z
2023-09-25T11:21:29Z,42.805,6.029,13.3097,4.60122,2470.707,2023-9-25T13:23:52Z
2023-09-25T11:24:32Z,42.805,6.029,13.3101,4.60129,2470.73,2023-9-25T13:26:55Z
2023-09-25T11:27:35Z,42.805,6.029,13.3103,4.60155,2470.67,2023-9-25T13:29:58Z
2023-09-25T11:30:38Z,42.805,6.029,13.3092,4.60133,2470.684,2023-9-25T13:33:01Z
2023-09-25T11:33:41Z,42.805,6.029,13.3102,4.60149,2470.717,2023-9-25T13:36:04Z
2023-09-25T11:36:44Z,42.805,6.029,13.3097,4.60135,2470.693,2023-9-25T13:39:07Z
2023-09-25T11:39:47Z,42.805,6.029,13.3101,4.60140,2470.74,2023-9-25T13:42:10Z
2023-09-25T11:42:50Z,42.805,6.029,13.3096,4.60137,2470.707,2023-9-25T13:45:13Z
2023-09-25T11:45:54Z,42.805,6.029,13.3096,4.60138,2470.707,2023-9-25T13:48:16Z
2023-09-25T11:48:57Z,42.805,6.029,13.3097,4.60142,2470.707,2023-9-25T13:51:19Z
2023-09-25T11:52:00Z,42.805,6.029,13.3104,4.60155,2470.693,2023-9-25T13:54:23Z
2023-09-25T11:55:03Z,42.805,6.029,13.3098,4.60158,2470.73,2023-9-25T13:57:26Z
2023-09-25T11:58:06Z,42.805,6.029,13.3105,4.60152,2470.717,2023-9-25T14:00:29Z
2023-09-25T12:01:09Z,42.805,6.029,13.3098,4.60161,2470.707,2023-9-25T14:03:32Z
2023-09-25T12:04:12Z,42.805,6.029,13.3099,4.60163,2470.717,2023-9-25T14:06:35Z
2023-09-25T12:07:15Z,42.805,6.029,13.3124,4.60140,2470.693,2023-9-25T14:09:38Z
2023-09-25T12:10:18Z,42.805,6.029,13.3127,4.60148,2470.73,2023-9-25T14:12:41Z
2023-09-25T12:13:21Z,42.805,6.029,13.3128,4.60141,2470.73,2023-9-25T14:15:44Z
2023-09-25T12:16:24Z,42.805,6.029,13.3111,4.60125,2470.754,2023-9-25T14:18:47Z
2023-09-25T12:19:27Z,42.805,6.029,13.3120,4.60119,2470.73,2023-9-25T14:21:50Z
2023-09-25T12:22:31Z,42.805,6.029,13.3042,4.60129,2470.754,2023-9-25T14:24:53Z
2023-09-25T12:25:34Z,42.805,6.029,13.3038,4.60143,2470.717,2023-9-25T14:27:56Z
2023-09-25T12:28:37Z,42.805,6.029,13.3106,4.60152,2470.754,2023-9-25T14:31:00Z
2023-09-25T12:31:39Z,42.805,6.029,13.3113,4.60150,2470.74,2023-9-25T14:34:01Z
2023-09-25T12:34:42Z,42.805,6.029,13.3093,4.60160,2470.73,2023-9-25T14:37:04Z
2023-09-25T12:37:45Z,42.805,6.029,13.3116,4.60146,2470.73,2023-9-25T14:40:08Z
2023-09-25T12:40:48Z,42.805,6.029,13.3087,4.60161,2470.74,2023-9-25T14:43:11Z
2023-09-25T12:43:51Z,42.805,6.029,13.3101,4.60195,2470.73,2023-9-25T14:46:14Z
2023-09-25T12:46:54Z,42.805,6.029,13.3053,4.60203,2470.73,2023-9-25T14:49:17Z
2023-09-25T12:49:57Z,42.805,6.029,13.3096,4.60163,2470.703,2023-9-25T14:52:20Z
2023-09-25T12:53:00Z,42.805,6.029,13.3085,4.60173,2470.754,2023-9-25T14:55:23Z
2023-09-25T12:56:03Z,42.805,6.029,13.3091,4.60178,2470.74,2023-9-25T14:58:26Z
2023-09-25T12:59:06Z,42.805,6.029,13.3047,4.60204,2470.74,2023-9-25T15:01:29Z
2023-09-25T13:02:09Z,42.805,6.029,13.3100,4.60215,2470.74,2023-9-25T15:04:32Z
2023-09-25T13:05:13Z,42.805,6.029,13.3106,4.60174,2470.754,2023-9-25T15:07:35Z
2023-09-25T13:08:16Z,42.805,6.029,13.3046,4.60143,2470.74,2023-9-25T15:10:38Z
2023-09-25T13:11:19Z,42.805,6.029,13.3037,4.60185,2470.74,2023-9-25T15:13:42Z
2023-09-25T13:14:22Z,42.805,6.029,13.3039,4.60238,2470.74,2023-9-25T15:16:45Z
2023-09-25T13:17:25Z,42.805,6.029,13.3054,4.60146,2470.763,2023-9-25T15:19:48Z
2023-09-25T13:20:28Z,42.805,6.029,13.3037,4.60199,2470.8,2023-9-25T15:22:51Z
2023-09-25T13:23:31Z,42.805,6.029,13.3037,4.60134,2470.763,2023-9-25T15:25:54Z
2023-09-25T13:26:34Z,42.805,6.029,13.3034,4.60137,2470.8,2023-9-25T15:28:57Z
2023-09-25T13:29:37Z,42.805,6.029,13.3037,4.60121,2470.787,2023-9-25T15:32:00Z
2023-09-25T13:32:40Z,42.805,6.029,13.3040,4.60132,2470.787,2023-9-25T15:35:03Z
2023-09-25T13:35:43Z,42.805,6.029,13.3038,4.60129,2470.763,2023-9-25T15:38:06Z
2023-09-25T13:38:47Z,42.805,6.029,13.3042,4.60145,2470.763,2023-9-25T15:41:09Z
2023-09-25T13:41:50Z,42.805,6.029,13.3036,4.60189,2470.8,2023-9-25T15:44:12Z
2023-09-25T13:44:53Z,42.805,6.029,13.3048,4.60135,2470.8,2023-9-25T15:47:16Z
2023-09-25T13:47:56Z,42.805,6.029,13.3091,4.60171,2470.787,2023-9-25T15:50:19Z
2023-09-25T13:50:59Z,42.805,6.029,13.3082,4.60183,2470.777,2023-9-25T15:53:22Z
2023-09-25T13:54:02Z,42.805,6.029,13.3082,4.60167,2470.787,2023-9-25T15:56:25Z
2023-09-25T13:57:05Z,42.805,6.029,13.3084,4.60188,2470.787,2023-9-25T15:59:28Z
2023-09-25T14:00:08Z,42.805,6.029,13.3102,4.60171,2470.81,2023-9-25T16:02:31Z
2023-09-25T14:03:11Z,42.805,6.029,13.3093,4.60162,2470.777,2023-9-25T16:05:34Z
2023-09-25T14:06:14Z,42.805,6.029,13.3093,4.60149,2470.777,2023-9-25T16:08:37Z
2023-09-25T14:09:17Z,42.805,6.029,13.3096,4.60146,2470.8,2023-9-25T16:11:40Z
2023-09-25T14:12:20Z,42.805,6.029,13.3089,4.60155,2470.824,2023-9-25T16:14:43Z
2023-09-25T14:15:24Z,42.805,6.029,13.3113,4.60144,2470.8,2023-9-25T16:17:46Z
2023-09-25T14:18:27Z,42.805,6.029,13.3109,4.60140,2470.8,2023-9-25T16:20:49Z
2023-09-25T14:21:30Z,42.805,6.029,13.3106,4.60160,2470.763,2023-9-25T16:23:53Z
2023-09-25T14:24:33Z,42.805,6.029,13.3113,4.60137,2470.787,2023-9-25T16:26:56Z
2023-09-25T14:27:36Z,42.805,6.029,13.3134,4.60143,2470.81,2023-9-25T16:29:59Z
2023-09-25T14:30:37Z,42.805,6.029,13.3090,4.60144,2470.81,2023-9-25T16:33:00Z
2023-09-25T14:33:41Z,42.805,6.029,13.3084,4.60126,2470.81,2023-9-25T16:36:03Z
2023-09-25T14:36:44Z,42.805,6.029,13.3082,4.60136,2470.81,2023-9-25T16:39:06Z
2023-09-25T14:39:47Z,42.805,6.029,13.3093,4.60137,2470.871,2023-9-25T16:42:10Z
2023-09-25T14:42:50Z,42.805,6.029,13.3082,4.60146,2470.8,2023-9-25T16:45:13Z
2023-09-25T14:45:53Z,42.805,6.029,13.3082,4.60146,2470.8,2023-9-25T16:48:16Z
2023-09-25T14:48:56Z,42.805,6.029,13.3085,4.60137,2470.824,2023-9-25T16:51:19Z
2023-09-25T14:51:59Z,42.805,6.029,13.3101,4.60144,2470.847,2023-9-25T16:54:22Z
2023-09-25T14:55:02Z,42.805,6.029,13.3091,4.60161,2470.81,2023-9-25T16:57:25Z
2023-09-25T14:58:05Z,42.805,6.029,13.3090,4.60138,2470.787,2023-9-25T17:00:28Z
2023-09-25T15:01:08Z,42.805,6.029,13.3098,4.60154,2470.847,2023-9-25T17:03:31Z
2023-09-25T15:04:11Z,42.805,6.029,13.3096,4.60144,2470.81,2023-9-25T17:06:34Z
2023-09-25T15:07:14Z,42.805,6.029,13.3108,4.60137,2470.833,2023-9-25T17:09:37Z
2023-09-25T15:10:18Z,42.805,6.029,13.3099,4.60131,2470.81,2023-9-25T17:12:40Z
2023-09-25T15:13:21Z,42.805,6.029,13.3100,4.60128,2470.81,2023-9-25T17:15:44Z